This is the latest recevied weather packets stored in our database for station/object IZ3LCH-13. If no packets are shown the sender has not sent any weather packets the latest 1 day(s).
| Time | Temp. | Humidity | Pressure | Rain* | Wind** | Luminosity | Snow |
|---|---|---|---|---|---|---|---|
| 1777983003 | 16.11° C | 74% | 1013.6 hPa | 0 mm | 1.79 m/s, 47° | - | - |
| 1777982703 | 16.11° C | 74% | 1013.7 hPa | 0 mm | 1.79 m/s, 54° | - | - |
| 1777982403 | 16.11° C | 73% | 1013.5 hPa | 0 mm | 2.24 m/s, 58° | - | - |
| 1777982103 | 16.11° C | 72% | 1013.6 hPa | 0 mm | 2.24 m/s, 65° | - | - |
| 1777981803 | 16.11° C | 72% | 1013.4 hPa | 0 mm | 1.79 m/s, 66° | - | - |
| 1777981503 | 16.11° C | 72% | 1013.5 hPa | 0 mm | 1.79 m/s, 53° | - | - |
| 1777981203 | 16.67° C | 72% | 1013.5 hPa | 0 mm | 2.24 m/s, 60° | - | - |
| 1777980903 | 16.67° C | 72% | 1013.6 hPa | 0 mm | 2.24 m/s, 59° | - | - |
| 1777980603 | 16.67° C | 74% | 1013.5 hPa | 0 mm | 2.24 m/s, 49° | - | - |
| 1777980303 | 16.67° C | 73% | 1013.5 hPa | 0 mm | 2.24 m/s, 45° | - | - |
| 1777980003 | 16.67° C | 74% | 1013.7 hPa | 0 mm | 2.24 m/s, 48° | - | - |
| 1777979703 | 16.67° C | 74% | 1013.6 hPa | 0 mm | 2.24 m/s, 57° | - | - |
| 1777979403 | 16.67° C | 73% | 1013.5 hPa | 0 mm | 2.24 m/s, 53° | - | - |
| 1777979103 | 16.67° C | 76% | 1013.3 hPa | 0 mm | 1.79 m/s, 42° | - | - |
| 1777978803 | 16.67° C | 74% | 1013.5 hPa | 0 mm | 1.79 m/s, 51° | - | - |
| 1777978503 | 16.67° C | 75% | 1013.5 hPa | 0 mm | 2.24 m/s, 58° | - | - |
| 1777978203 | 16.11° C | 75% | 1013.6 hPa | 0 mm | 1.79 m/s, 63° | - | - |
| 1777977903 | 16.11° C | 76% | 1013.8 hPa | 0 mm | 1.79 m/s, 70° | - | - |
| 1777977603 | 16.11° C | 76% | 1013.4 hPa | 0 mm | 1.79 m/s, 75° | - | - |
| 1777977303 | 15.56° C | 76% | 1013.6 hPa | 0 mm | 1.34 m/s, 74° | - | - |
| 1777977003 | 15.56° C | 77% | 1013.7 hPa | 0 mm | 1.34 m/s, 60° | - | - |
| 1777976703 | 15.56° C | 76% | 1013.8 hPa | 0 mm | 1.34 m/s, 56° | - | - |
| 1777976403 | 16.11° C | 76% | 1013.7 hPa | 0 mm | 1.34 m/s, 73° | - | - |
| 1777976103 | 16.11° C | 76% | 1013.9 hPa | 0 mm | 1.34 m/s, 87° | - | - |
| 1777975803 | 16.11° C | 75% | 1013.8 hPa | 0 mm | 1.34 m/s, 93° | - | - |
* Rain latest hour (hover to see other rain measurements)
** Current wind speed in m/s (hover to see current wind gust speed)